QPF
0.01 0.01 0.02 0.02 0.03 0.03 0.03 0.03 0.03 0.02 0.03 0.02 0.02 0.01 0.01 0.01 0.01 0.01 0.01 0.01 0.01 0.01 0.01 0.01 0.01 0.01 0.01 0.01 0.02 0.02 0.02 0.02 0.03 0.03 0.03 0.04 0.05 0.06
0.02 0.02 0.02 0.02 0.03 0.04 0.03 0.03 0.02 0.02 0.03 0.02 0.01 0.01 0.01 0.01 0.01 0.01 0.01 0.01 0.01 0.01 0.01 0.01 0.01 0.01 0.01 0.01 0.01 0.02 0.02 0.02 0.02 0.03 0.03 0.04 0.04 0.05
0.01 0.01 0.02 0.03 0.03 0.04 0.04 0.04 0.04 0.03 0.04 0.02 0.01 0.01 0.01 0.01 0.01 0.01 0.01 0.01 0.01 0.01 0.01 0.01 0.01 0.01 0.01 0.01 0.01 0.01 0.01 0.01 0.02 0.02 0.03 0.03 0.05 0.08
0.01 0.01 0.01 0.02 0.03 0.05 0.05 0.05 0.04 0.04 0.04 0.02 0.01 0.01 0.01 0.01 0.01 0.01 0.01 0.01 0.01 0.01 0.01 0.01 0.01 0.01 0.01 0.01 0.01 0.01 0.01 0.01 0.01 0.02 0.02 0.02 0.05 0.11
0.01 0.01 0.01 0.01 0.03 0.04 0.05 0.05 0.04 0.03 0.03 0.03 0.01 0.01 0.01 0.01 0.02 0.02 0.01 0.00 0.00 0.00 0.01 0.01 0.01 0.01 0.01 0.02 0.01 0.01 0.01 0.01 0.01 0.01 0.01 0.01 0.04 0.10
0.01 0.01 0.01 0.01 0.02 0.03 0.04 0.04 0.04 0.04 0.04 0.03 0.02 0.02 0.02 0.02 0.02 0.02 0.02 0.01 0.01 0.01 0.00 0.00 0.00 0.00 0.00 0.01 0.01 0.01 0.01 0.01 0.01 0.01 0.01 0.01 0.03 0.07
0.01 0.01 0.01 0.01 0.02 0.03 0.04 0.04 0.04 0.04 0.04 0.04 0.03 0.02 0.02 0.02 0.03 0.03 0.03 0.03 0.02 0.02 0.00 0.00 0.00 0.00 0.00 0.01 0.02 0.01 0.01 0.01 0.01 0.02 0.02 0.01 0.02 0.04
0.01 0.01 0.01 0.01 0.01 0.02 0.03 0.04 0.04 0.04 0.04 0.04 0.04 0.04 0.03 0.02 0.03 0.03 0.04 0.05 0.05 0.04 0.02 0.00 0.00 0.00 0.00 0.01 0.02 0.02 0.01 0.01 0.02 0.03 0.04 0.03 0.02 0.02
0.02 0.02 0.01 0.01 0.02 0.01 0.03 0.04 0.04 0.04 0.04 0.04 0.04 0.04 0.03 0.03 0.04 0.04 0.04 0.04 0.04 0.04 0.03 0.02 0.01 0.00 0.01 0.01 0.02 0.03 0.03 0.02 0.03 0.04 0.06 0.06 0.06 0.04
0.02 0.02 0.02 0.03 0.03 0.03 0.03 0.03 0.03 0.03 0.03 0.03 0.04 0.04 0.03 0.02 0.03 0.03 0.05 0.05 0.04 0.03 0.03 0.03 0.01 0.01 0.01 0.02 0.02 0.04 0.05 0.04 0.03 0.04 0.06 0.08 0.09 0.08
0.02 0.02 0.02 0.03 0.05 0.06 0.05 0.04 0.04 0.03 0.03 0.02 0.03 0.03 0.04 0.03 0.03 0.03 0.04 0.05 0.06 0.05 0.04 0.04 0.02 0.01 0.02 0.04 0.04 0.06 0.08 0.08 0.07 0.07 0.08 0.09 0.09 0.09
0.02 0.02 0.02 0.02 0.03 0.05 0.05 0.05 0.05 0.04 0.03 0.03 0.03 0.03 0.04 0.04 0.05 0.04 0.03 0.04 0.05 0.06 0.06 0.06 0.03 0.01 0.02 0.05 0.07 0.10 0.13 0.16 0.14 0.12 0.11 0.10 0.09 0.08
0.02 0.01 0.02 0.03 0.03 0.04 0.04 0.05 0.06 0.06 0.05 0.04 0.04 0.04 0.04 0.04 0.05 0.05 0.04 0.04 0.04 0.05 0.07 0.09 0.07 0.03 0.02 0.05 0.10 0.13 0.15 0.19 0.20 0.18 0.16 0.13 0.10 0.07
0.02 0.02 0.02 0.03 0.03 0.03 0.03 0.04 0.05 0.05 0.05 0.05 0.05 0.04 0.04 0.04 0.04 0.04 0.05 0.05 0.04 0.05 0.06 0.08 0.08 0.07 0.05 0.04 0.07 0.12 0.14 0.17 0.18 0.17 0.16 0.14 0.11 0.07
0.03 0.03 0.04 0.03 0.03 0.03 0.03 0.04 0.05 0.06 0.06 0.05 0.05 0.05 0.06 0.06 0.05 0.04 0.04 0.04 0.04 0.04 0.04 0.06 0.08 0.07 0.06 0.05 0.05 0.07 0.10 0.13 0.12 0.10 0.10 0.09 0.08 0.06
0.03 0.03 0.03 0.03 0.02 0.02 0.03 0.03 0.04 0.05 0.07 0.07 0.05 0.04 0.04 0.05 0.05 0.05 0.05 0.04 0.05 0.06 0.06 0.06 0.08 0.09 0.08 0.06 0.05 0.05 0.06 0.08 0.09 0.07 0.05 0.05 0.05 0.05
0.03 0.03 0.03 0.03 0.02 0.02 0.02 0.03 0.03 0.04 0.05 0.06 0.06 0.06 0.05 0.05 0.06 0.05 0.04 0.03 0.03 0.05 0.06 0.07 0.08 0.08 0.08 0.08 0.07 0.06 0.06 0.05 0.05 0.05 0.04 0.04 0.03 0.03
0.04 0.04 0.04 0.03 0.03 0.04 0.03 0.04 0.04 0.04 0.04 0.05 0.07 0.08 0.08 0.08 0.07 0.07 0.05 0.03 0.03 0.03 0.04 0.05 0.06 0.07 0.07 0.07 0.07 0.06 0.05 0.05 0.05 0.05 0.04 0.04 0.03 0.03
0.05 0.04 0.04 0.04 0.04 0.05 0.06 0.06 0.06 0.06 0.05 0.05 0.06 0.07 0.08 0.09 0.08 0.07 0.06 0.04 0.03 0.02 0.02 0.03 0.04 0.05 0.06 0.06 0.06 0.06 0.05 0.05 0.04 0.04 0.04 0.03 0.03 0.03
0.05 0.04 0.04 0.03 0.03 0.03 0.04 0.05 0.06 0.06 0.06 0.07 0.07 0.07 0.07 0.07 0.08 0.08 0.06 0.05 0.03 0.03 0.02 0.02 0.02 0.03 0.05 0.05 0.04 0.04 0.04 0.04 0.04 0.03 0.03 0.03 0.03 0.02
0.05 0.04 0.04 0.03 0.02 0.02 0.02 0.03 0.03 0.04 0.05 0.06 0.07 0.08 0.08 0.08 0.08 0.07 0.06 0.05 0.04 0.03 0.02 0.02 0.02 0.03 0.04 0.04 0.03 0.02 0.02 0.03 0.03 0.03 0.03 0.03 0.02 0.01
0.04 0.04 0.04 0.03 0.02 0.02 0.02 0.02 0.02 0.03 0.03 0.04 0.05 0.06 0.07 0.08 0.08 0.08 0.07 0.05 0.04 0.03 0.03 0.03 0.02 0.02 0.03 0.03 0.03 0.03 0.02 0.02 0.03 0.03 0.03 0.02 0.02 0.02
0.04 0.04 0.04 0.04 0.03 0.03 0.03 0.03 0.02 0.02 0.02 0.02 0.03 0.04 0.05 0.06 0.07 0.08 0.07 0.06 0.05 0.04 0.04 0.04 0.04 0.02 0.02 0.02 0.02 0.03 0.03 0.02 0.02 0.03 0.03 0.02 0.01 0.01
MSLP
1026.77 1026.82 1026.89 1027.00 1027.14 1027.29 1027.44 1027.57 1027.66 1027.69 1027.65 1027.51 1027.28 1026.94 1026.50 1025.98 1025.38 1024.73 1024.05 1023.37 1022.71 1022.07 1021.48 1020.91 1020.34 1019.76 1019.13 1018.41 1017.59 1016.67 1015.63 1014.53 1013.37 1012.23 1011.14 1010.17 1009.36 1008.75
1027.36 1027.42 1027.48 1027.56 1027.67 1027.79 1027.92 1028.06 1028.17 1028.24 1028.25 1028.18 1028.01 1027.74 1027.36 1026.87 1026.29 1025.66 1024.98 1024.29 1023.62 1022.98 1022.39 1021.83 1021.29 1020.74 1020.14 1019.46 1018.67 1017.76 1016.73 1015.60 1014.40 1013.17 1011.98 1010.88 1009.93 1009.16
1027.92 1027.99 1028.06 1028.14 1028.23 1028.33 1028.46 1028.59 1028.72 1028.82 1028.87 1028.86 1028.75 1028.54 1028.21 1027.77 1027.23 1026.60 1025.93 1025.23 1024.55 1023.90 1023.29 1022.73 1022.19 1021.64 1021.06 1020.40 1019.63 1018.75 1017.73 1016.60 1015.38 1014.11 1012.84 1011.64 1010.56 1009.64
1028.41 1028.52 1028.61 1028.70 1028.79 1028.89 1029.01 1029.14 1029.28 1029.40 1029.49 1029.51 1029.46 1029.30 1029.02 1028.62 1028.12 1027.52 1026.86 1026.17 1025.48 1024.82 1024.19 1023.60 1023.04 1022.48 1021.89 1021.24 1020.49 1019.62 1018.63 1017.51 1016.29 1015.00 1013.69 1012.42 1011.23 1010.19
1028.80 1028.96 1029.09 1029.20 1029.30 1029.42 1029.54 1029.67 1029.80 1029.93 1030.03 1030.09 1030.07 1029.95 1029.72 1029.37 1028.91 1028.36 1027.74 1027.07 1026.39 1025.71 1025.07 1024.46 1023.87 1023.29 1022.68 1022.02 1021.27 1020.42 1019.45 1018.35 1017.15 1015.87 1014.54 1013.22 1011.95 1010.80
1029.07 1029.27 1029.45 1029.59 1029.73 1029.85 1029.98 1030.11 1030.24 1030.37 1030.47 1030.53 1030.53 1030.44 1030.26 1029.97 1029.57 1029.08 1028.51 1027.89 1027.24 1026.59 1025.94 1025.32 1024.70 1024.09 1023.46 1022.79 1022.04 1021.20 1020.25 1019.18 1018.00 1016.74 1015.41 1014.06 1012.75 1011.51
1029.20 1029.45 1029.66 1029.85 1030.01 1030.16 1030.29 1030.42 1030.55 1030.66 1030.75 1030.82 1030.83 1030.77 1030.63 1030.40 1030.07 1029.66 1029.17 1028.62 1028.03 1027.42 1026.79 1026.18 1025.55 1024.93 1024.28 1023.59 1022.84 1022.00 1021.07 1020.03 1018.89 1017.66 1016.35 1015.00 1013.65 1012.36
1029.19 1029.47 1029.73 1029.95 1030.15 1030.32 1030.47 1030.60 1030.71 1030.82 1030.90 1030.96 1030.97 1030.94 1030.84 1030.68 1030.43 1030.11 1029.71 1029.26 1028.75 1028.20 1027.63 1027.03 1026.43 1025.80 1025.14 1024.45 1023.70 1022.87 1021.97 1020.96 1019.86 1018.67 1017.39 1016.06 1014.71 1013.39
1029.07 1029.37 1029.66 1029.92 1030.15 1030.35 1030.52 1030.66 1030.77 1030.87 1030.94 1030.99 1031.02 1031.01 1030.96 1030.85 1030.69 1030.46 1030.16 1029.81 1029.39 1028.93 1028.42 1027.88 1027.30 1026.69 1026.05 1025.36 1024.63 1023.82 1022.95 1021.99 1020.93 1019.79 1018.56 1017.27 1015.94 1014.62
1028.87 1029.20 1029.51 1029.81 1030.08 1030.31 1030.50 1030.66 1030.78 1030.87 1030.94 1031.00 1031.03 1031.04 1031.03 1030.98 1030.88 1030.74 1030.54 1030.28 1029.97 1029.59 1029.16 1028.67 1028.15 1027.58 1026.97 1026.31 1025.60 1024.83 1024.00 1023.09 1022.09 1021.01 1019.85 1018.61 1017.33 1016.04
1028.64 1028.99 1029.35 1029.68 1029.99 1030.25 1030.48 1030.65 1030.79 1030.89 1030.97 1031.03 1031.07 1031.10 1031.11 1031.10 1031.06 1030.99 1030.86 1030.69 1030.45 1030.15 1029.80 1029.38 1028.92 1028.40 1027.83 1027.22 1026.56 1025.85 1025.07 1024.22 1023.30 1022.29 1021.21 1020.06 1018.85 1017.62
1028.42 1028.81 1029.20 1029.58 1029.93 1030.23 1030.49 1030.69 1030.85 1030.96 1031.05 1031.11 1031.16 1031.20 1031.23 1031.25 1031.24 1031.21 1031.14 1031.02 1030.84 1030.61 1030.32 1029.97 1029.56 1029.11 1028.61 1028.06 1027.46 1026.81 1026.10 1025.33 1024.49 1023.58 1022.59 1021.53 1020.42 1019.28
1028.23 1028.67 1029.11 1029.53 1029.92 1030.26 1030.55 1030.78 1030.96 1031.09 1031.19 1031.26 1031.31 1031.35 1031.39 1031.41 1031.41 1031.39 1031.35 1031.26 1031.12 1030.93 1030.69 1030.40 1030.07 1029.68 1029.25 1028.77 1028.25 1027.67 1027.05 1026.36 1025.61 1024.79 1023.91 1022.95 1021.95 1020.93
1028.06 1028.55 1029.04 1029.51 1029.94 1030.31 1030.63 1030.89 1031.09 1031.24 1031.35 1031.42 1031.47 1031.51 1031.54 1031.55 1031.55 1031.53 1031.48 1031.40 1031.29 1031.13 1030.93 1030.69 1030.42 1030.10 1029.74 1029.34 1028.90 1028.41 1027.87 1027.27 1026.61 1025.88 1025.10 1024.27 1023.39 1022.48
1027.88 1028.43 1028.97 1029.48 1029.94 1030.34 1030.68 1030.96 1031.17 1031.33 1031.45 1031.53 1031.59 1031.63 1031.64 1031.65 1031.63 1031.60 1031.54 1031.46 1031.35 1031.22 1031.05 1030.86 1030.64 1030.39 1030.10 1029.78 1029.41 1029.00 1028.54 1028.02 1027.45 1026.82 1026.13 1025.41 1024.64 1023.86
1027.63 1028.23 1028.82 1029.36 1029.85 1030.27 1030.62 1030.91 1031.14 1031.31 1031.44 1031.54 1031.60 1031.64 1031.66 1031.66 1031.64 1031.59 1031.53 1031.45 1031.35 1031.24 1031.10 1030.95 1030.78 1030.59 1030.37 1030.12 1029.82 1029.48 1029.08 1028.63 1028.13 1027.57 1026.97 1026.34 1025.68 1025.02
1027.25 1027.91 1028.53 1029.09 1029.59 1030.02 1030.39 1030.69 1030.93 1031.12 1031.27 1031.38 1031.46 1031.52 1031.55 1031.57 1031.55 1031.52 1031.47 1031.40 1031.32 1031.23 1031.12 1031.02 1030.89 1030.75 1030.59 1030.39 1030.15 1029.86 1029.51 1029.11 1028.65 1028.15 1027.62 1027.06 1026.48 1025.91
1026.72 1027.41 1028.04 1028.62 1029.13 1029.57 1029.94 1030.25 1030.50 1030.72 1030.90 1031.05 1031.17 1031.26 1031.33 1031.38 1031.40 1031.39 1031.37 1031.33 1031.28 1031.22 1031.15 1031.08 1031.00 1030.91 1030.78 1030.62 1030.42 1030.15 1029.83 1029.46 1029.03 1028.56 1028.07 1027.56 1027.05 1026.55
1026.01 1026.72 1027.36 1027.94 1028.45 1028.89 1029.27 1029.60 1029.88 1030.13 1030.35 1030.55 1030.73 1030.88 1031.01 1031.11 1031.18 1031.23 1031.25 1031.25 1031.24 1031.22 1031.20 1031.16 1031.12 1031.06 1030.96 1030.82 1030.63 1030.38 1030.07 1029.70 1029.28 1028.83 1028.35 1027.87 1027.41 1026.96
1025.15 1025.86 1026.50 1027.08 1027.59 1028.04 1028.43 1028.78 1029.10 1029.40 1029.68 1029.94 1030.19 1030.41 1030.61 1030.78 1030.91 1031.02 1031.10 1031.15 1031.19 1031.22 1031.23 1031.23 1031.22 1031.17 1031.09 1030.96 1030.78 1030.53 1030.21 1029.84 1029.42 1028.97 1028.50 1028.04 1027.60 1027.19
1024.17 1024.87 1025.51 1026.09 1026.60 1027.05 1027.47 1027.85 1028.22 1028.57 1028.92 1029.25 1029.57 1029.87 1030.15 1030.39 1030.60 1030.77 1030.90 1031.01 1031.10 1031.16 1031.21 1031.24 1031.24 1031.22 1031.14 1031.02 1030.83 1030.57 1030.25 1029.87 1029.45 1029.00 1028.54 1028.10 1027.68 1027.30
1023.12 1023.81 1024.44 1025.01 1025.52 1026.00 1026.44 1026.86 1027.28 1027.69 1028.11 1028.51 1028.91 1029.29 1029.63 1029.94 1030.21 1030.44 1030.63 1030.79 1030.91 1031.01 1031.09 1031.14 1031.16 1031.14 1031.07 1030.95 1030.76 1030.50 1030.18 1029.80 1029.39 1028.95 1028.50 1028.08 1027.68 1027.33
1022.05 1022.72 1023.34 1023.90 1024.42 1024.91 1025.39 1025.86 1026.32 1026.80 1027.27 1027.75 1028.21 1028.65 1029.06 1029.43 1029.75 1030.03 1030.26 1030.45 1030.60 1030.73 1030.83 1030.89 1030.93 1030.92 1030.86 1030.74 1030.56 1030.31 1030.00 1029.64 1029.24 1028.83 1028.41 1028.02 1027.66 1027.34
Thickness
5628 5628 5627 5627 5628 5629 5629 5628 5625 5621 5622 5623 5624 5626 5628 5629 5629 5630 5630 5631 5631 5632 5633 5633 5634 5635 5635 5636 5637 5638 5639 5640 5642 5643 5644 5645 5646 5647
5620 5619 5618 5618 5618 5619 5620 5620 5620 5618 5615 5616 5616 5618 5619 5620 5621 5622 5623 5623 5623 5624 5624 5625 5626 5627 5627 5629 5630 5631 5632 5633 5635 5636 5637 5639 5640 5641
5611 5610 5609 5609 5608 5609 5610 5611 5610 5610 5608 5608 5608 5610 5611 5612 5613 5614 5615 5615 5615 5616 5616 5617 5618 5619 5620 5621 5622 5623 5625 5626 5627 5629 5630 5632 5634 5635
5602 5601 5600 5600 5599 5599 5601 5601 5601 5602 5602 5600 5600 5601 5603 5604 5605 5606 5606 5607 5608 5608 5608 5609 5610 5611 5612 5613 5614 5616 5617 5618 5620 5622 5623 5625 5627 5628
5595 5593 5592 5592 5591 5591 5591 5592 5592 5594 5594 5594 5593 5593 5594 5596 5596 5597 5598 5599 5600 5600 5600 5601 5602 5604 5605 5606 5607 5609 5610 5611 5613 5614 5616 5618 5620 5622
5587 5586 5585 5584 5583 5583 5584 5584 5585 5585 5585 5586 5586 5585 5586 5587 5587 5587 5588 5589 5591 5592 5593 5594 5595 5596 5598 5599 5601 5602 5603 5604 5606 5607 5609 5611 5613 5614
5579 5578 5577 5577 5577 5577 5577 5576 5577 5576 5576 5576 5577 5577 5577 5577 5578 5579 5579 5580 5582 5583 5584 5586 5587 5589 5590 5592 5594 5595 5596 5598 5599 5600 5602 5603 5605 5606
5570 5570 5570 5569 5569 5570 5570 5570 5570 5569 5568 5568 5568 5569 5570 5571 5572 5572 5571 5571 5572 5575 5576 5577 5579 5580 5583 5585 5587 5588 5590 5591 5592 5593 5594 5595 5596 5598
5562 5561 5561 5561 5560 5560 5561 5561 5562 5563 5564 5563 5562 5564 5565 5566 5565 5564 5564 5564 5565 5568 5568 5568 5570 5572 5575 5577 5579 5581 5583 5584 5585 5585 5586 5587 5588 5589
5553 5553 5552 5551 5552 5552 5551 5551 5552 5554 5556 5557 5558 5559 5561 5561 5561 5561 5560 5559 5559 5560 5561 5559 5562 5564 5568 5569 5572 5573 5575 5576 5577 5578 5578 5579 5579 5580
5545 5544 5544 5543 5544 5544 5543 5542 5543 5545 5548 5550 5551 5553 5554 5554 5554 5553 5551 5550 5549 5551 5553 5552 5553 5555 5558 5560 5563 5565 5566 5568 5569 5570 5571 5571 5571 5572
5536 5536 5536 5537 5537 5536 5535 5535 5535 5536 5538 5541 5543 5545 5546 5546 5547 5546 5546 5544 5542 5542 5545 5545 5545 5546 5547 5551 5554 5556 5558 5559 5561 5562 5563 5563 5563 5563
5527 5527 5527 5528 5528 5527 5527 5527 5528 5529 5530 5532 5533 5535 5537 5538 5538 5539 5539 5539 5537 5536 5539 5538 5538 5538 5538 5540 5544 5547 5548 5550 5552 5553 5554 5554 5554 5555
5518 5518 5519 5520 5519 5519 5519 5519 5520 5520 5521 5522 5524 5525 5526 5528 5529 5531 5531 5532 5533 5533 5533 5532 5531 5531 5531 5531 5533 5536 5538 5540 5542 5544 5544 5545 5545 5545
5511 5511 5511 5510 5510 5509 5510 5510 5510 5510 5511 5512 5514 5516 5518 5520 5521 5522 5523 5524 5524 5524 5525 5525 5525 5524 5524 5524 5525 5526 5528 5530 5532 5533 5534 5534 5535 5535
5502 5501 5501 5500 5499 5499 5499 5499 5499 5500 5501 5502 5504 5506 5509 5511 5512 5513 5513 5514 5513 5514 5516 5517 5517 5516 5515 5516 5517 5517 5518 5518 5521 5522 5523 5524 5524 5525
5493 5491 5489 5488 5487 5488 5488 5489 5489 5490 5491 5492 5495 5497 5499 5502 5503 5505 5506 5506 5505 5505 5505 5506 5507 5507 5507 5507 5507 5508 5509 5509 5511 5512 5513 5513 5514 5515
5483 5481 5479 5478 5477 5478 5478 5478 5479 5480 5481 5483 5485 5488 5490 5492 5495 5496 5498 5498 5497 5497 5496 5497 5497 5497 5497 5497 5498 5499 5500 5500 5502 5502 5503 5503 5504 5505
5472 5470 5468 5468 5467 5467 5467 5468 5468 5469 5471 5474 5476 5479 5481 5483 5486 5487 5488 5490 5489 5489 5489 5489 5489 5488 5488 5489 5489 5490 5491 5492 5493 5493 5493 5494 5495 5497
5460 5459 5457 5457 5457 5457 5457 5457 5458 5460 5462 5464 5466 5469 5472 5474 5476 5477 5478 5480 5481 5480 5480 5480 5480 5481 5481 5481 5481 5481 5482 5483 5485 5485 5485 5486 5487 5489
5449 5448 5448 5447 5448 5448 5448 5449 5449 5451 5453 5455 5457 5460 5463 5465 5466 5468 5469 5471 5472 5472 5473 5473 5473 5474 5473 5472 5472 5473 5474 5475 5477 5477 5478 5478 5479 5480
5440 5439 5439 5439 5439 5439 5439 5440 5441 5442 5444 5446 5448 5451 5454 5456 5458 5460 5461 5462 5463 5464 5465 5465 5465 5466 5466 5466 5466 5467 5467 5468 5469 5469 5471 5472 5472 5472
5432 5431 5431 5430 5430 5430 5430 5432 5433 5434 5436 5438 5440 5442 5445 5447 5450 5452 5453 5454 5455 5456 5456 5456 5456 5456 5457 5458 5458 5459 5460 5460 5461 5461 5463 5465 5466 5467